STARLINK-35121

Last updated on Mon Oct 20 2025 00:02:06 GMT+0000 (Coordinated Universal Time)

1 65737U 25216D 25292.23867144 .00121625 00000+0 21582-2 0 9995 2 65737 53.1585 272.2696 0001493 101.6033 258.5144 15.49345536 4853
UTC large
Height (km)
Speed (km/s)
/
Latitude / Longitude
Inclination (degrees)
Orbital Period (minutes)
Azimuth
Elevation
Range (km)
Doppler Factor

Next 0 passes for location: London (51.5072 / 0.1276)

Sorry there are no passes over London.